Wind_Speed
10 8 12 15 11 14 15 16 19 20 17 18 18 22 23 22 17 15 11 13 13 13 11 8 10 19 21 23 24 26 25 31 22 29 31 32 32 27 29 28 26 33 30 25
11 15 11 9 10 14 16 19 19 17 16 18 21 24 24 16 9 12 15 13 11 11 12 11 13 16 17 23 22 28 28 36 28 33 33 34 32 29 32 28 29 33 32 26
13 16 8 9 12 16 16 16 16 19 20 20 24 19 15 10 10 17 21 19 17 14 11 11 10 13 20 19 24 26 31 35 29 33 30 31 33 31 28 25 28 35 33 30
11 8 7 11 12 12 13 17 17 20 20 16 19 13 13 10 8 12 16 20 22 22 23 17 17 18 18 23 27 29 30 33 28 27 29 29 31 30 28 26 30 34 31 28
16 19 14 11 10 12 17 15 19 23 22 20 17 8 7 6 11 15 18 19 21 21 21 22 21 25 28 26 28 30 31 31 28 29 32 29 29 34 29 27 31 30 29 29
16 14 15 5 11 17 22 12 19 20 17 10 4 16 9 8 13 17 19 23 24 24 22 23 21 26 25 28 30 32 34 33 33 33 34 33 32 32 34 30 32 32 30 31
21 9 8 2 12 14 17 12 6 5 7 10 23 11 7 9 15 19 23 26 27 26 21 21 18 20 27 30 27 33 34 34 33 34 33 37 34 36 37 29 33 29 29 28
12 9 17 19 13 12 19 4 2 3 8 15 21 4 8 3 18 22 25 25 23 24 24 22 18 19 24 29 22 33 35 33 35 32 33 38 37 38 37 32 34 30 30 29
12 12 25 19 6 13 9 9 7 2 9 7 8 3 11 22 22 27 27 24 24 23 22 23 22 19 26 23 21 38 34 35 36 34 32 36 39 39 40 32 36 31 31 30
11 18 13 14 17 11 1 6 6 3 4 6 10 14 8 24 21 26 27 22 23 22 21 24 21 21 28 32 31 37 27 34 33 33 29 33 36 39 36 37 34 34 33 35
14 10 15 16 15 7 9 3 8 5 4 3 6 8 11 17 21 23 24 20 24 24 21 22 24 28 33 36 31 29 24 29 31 33 29 32 35 40 40 37 33 32 38 39
9 7 11 22 13 10 10 14 11 4 6 4 3 7 16 19 21 21 21 20 24 24 22 22 23 26 15 13 20 22 8 8 15 25 27 26 36 36 31 35 31 43 41 42
7 5 10 12 2 8 18 17 15 11 5 7 3 6 18 18 20 20 19 20 22 23 25 25 22 15 18 27 15 25 21 17 29 23 19 20 25 29 31 36 40 43 43 42
3 5 7 6 16 20 19 20 18 9 4 7 10 18 19 21 20 19 18 17 21 20 21 20 22 15 14 18 22 6 30 41 28 23 15 12 27 40 41 43 40 43 45 42
2 6 14 15 20 23 20 22 14 11 9 3 15 16 18 20 18 16 11 16 19 21 22 21 19 9 7 14 21 28 34 11 12 25 27 21 27 43 44 43 42 41 41 41
6 13 15 16 22 19 20 18 10 8 11 15 13 16 15 18 18 13 12 16 18 19 19 20 18 16 11 17 23 20 9 18 25 28 30 37 23 40 43 42 42 42 40 41
13 7 10 18 21 21 8 10 4 9 11 9 10 16 15 19 18 9 14 14 16 17 17 17 16 11 14 16 20 19 19 18 23 22 29 40 29 32 38 46 42 40 39 41
10 9 8 12 16 8 15 4 10 14 9 10 12 12 16 19 17 7 9 13 15 15 15 15 14 13 16 15 15 15 22 22 18 21 25 34 43 33 34 37 41 34 33 36
7 6 5 5 9 13 4 8 10 15 9 10 11 12 16 20 16 4 12 8 10 13 11 12 19 17 14 16 14 16 18 17 19 11 24 33 36 33 33 38 35 36 38 32
6 8 6 11 7 3 10 12 17 16 3 10 11 15 17 19 14 12 11 6 10 15 17 14 17 16 14 11 10 14 17 17 20 16 12 29 38 39 38 38 36 33 34 37
7 10 12 12 12 6 8 17 14 12 12 17 18 12 13 10 10 10 11 8 8 13 18 21 13 12 12 9 12 14 20 17 25 24 11 32 32 36 42 42 38 36 34 34
12 7 10 8 10 6 21 13 11 6 12 13 11 12 11 12 13 14 13 12 10 10 18 20 12 10 12 10 12 15 25 21 31 33 20 36 30 33 38 47 38 36 35 33
10 6 8 6 9 19 14 11 13 8 10 5 9 9 14 9 9 13 12 12 10 12 13 17 10 12 17 15 15 21 20 24 32 26 27 34 33 35 38 43 36 35 31 27
15 13 11 13 13 18 18 15 9 10 14 11 10 12 18 5 8 12 12 10 10 11 12 14 11 11 13 14 14 19 23 27 27 29 31 34 38 37 37 37 32 29 23 22
12 15 15 17 17 15 10 13 12 10 10 14 6 6 14 8 7 10 11 10 10 10 11 11 9 9 12 12 14 17 23 27 28 30 32 35 35 38 36 27 23 23 23 20
14 15 11 12 13 11 13 14 15 14 13 12 6 8 9 11 8 11 10 10 13 12 11 10 9 12 11 12 16 18 20 28 31 30 29 32 30 29 32 37 42 35 28 25
Wind_Direction
274 263 277 303 1 320 304 290 288 285 299 331 314 306 294 283 281 309 340 327 321 337 328 291 281 236 222 227 228 222 236 254 261 213 195 203 220 201 206 198 198 190 191 197
266 239 260 8 316 299 289 285 289 308 334 318 297 284 274 289 337 323 292 333 351 325 316 315 312 302 263 228 227 217 219 242 256 209 204 203 206 216 202 196 197 185 184 197
309 291 332 308 301 300 297 300 317 319 308 290 285 293 320 330 14 21 3 2 349 338 337 333 316 253 255 250 227 220 221 233 253 207 205 203 208 211 204 200 178 177 182 191
292 264 304 304 304 311 313 320 312 304 300 298 299 298 309 39 25 10 352 347 341 333 326 317 302 292 248 238 231 222 215 227 246 214 205 197 200 209 205 202 172 171 180 189
285 312 309 310 329 327 293 299 300 289 296 288 284 306 292 2 16 2 355 347 335 322 312 311 311 304 286 228 218 219 218 222 235 217 208 205 207 209 204 198 174 168 179 187
257 269 264 328 308 288 301 294 314 311 277 266 343 336 313 48 7 351 345 338 335 327 310 297 296 309 311 303 215 209 206 218 226 217 215 206 209 205 208 191 172 167 175 182
314 24 91 164 308 323 336 2 332 313 341 313 334 325 56 27 354 358 346 341 337 328 309 294 338 321 306 305 294 204 200 203 219 212 213 208 206 206 202 188 177 168 170 176
356 338 8 341 319 318 306 97 141 283 322 312 304 296 15 318 358 351 350 345 343 327 316 322 318 301 284 276 282 285 198 197 210 209 211 209 205 208 201 188 175 171 169 176
315 318 323 302 325 309 331 2 348 153 277 281 284 12 197 6 354 350 342 345 341 326 321 314 298 288 282 273 275 298 195 193 205 204 205 209 205 206 199 191 172 170 168 171
313 307 310 321 304 291 21 299 326 8 309 301 316 310 4 350 353 346 344 345 332 324 323 313 309 301 280 267 270 275 185 191 198 201 200 203 202 199 191 190 175 167 167 157
321 323 310 300 310 327 242 356 315 348 289 305 300 305 18 3 353 347 339 347 333 329 327 317 313 306 279 274 263 212 198 195 185 190 191 203 200 192 187 184 170 166 150 136
351 302 302 304 314 301 36 347 336 332 292 230 252 274 5 359 350 349 334 343 336 329 328 333 326 334 268 184 255 84 120 182 186 197 191 188 204 180 176 175 156 137 129 130
353 330 324 327 117 339 339 325 314 299 302 280 312 282 319 354 351 357 343 341 336 333 336 343 341 345 11 359 341 134 140 210 240 203 192 187 181 166 161 134 124 126 123 124
102 294 304 277 292 295 302 299 293 309 291 317 293 319 335 352 344 353 344 339 334 338 342 344 340 341 19 348 357 303 187 208 203 177 172 156 125 124 116 118 118 120 123 126
241 291 290 309 303 288 284 284 296 296 336 293 314 321 338 344 336 354 339 340 340 344 350 348 351 321 355 359 349 287 279 262 148 114 132 115 129 120 116 117 117 119 122 128
297 296 306 303 296 308 318 25 349 359 330 327 327 330 340 329 336 351 350 348 344 347 347 351 351 358 356 19 356 336 303 118 125 132 115 129 133 116 116 118 120 123 124 128
285 299 309 296 303 308 35 221 10 346 2 5 354 335 312 338 338 4 354 354 345 342 343 349 347 3 359 11 7 359 44 67 102 116 128 126 112 113 121 127 124 121 124 127
256 291 289 306 318 318 353 71 360 3 63 22 350 332 334 329 339 74 23 358 342 342 346 350 343 357 357 5 22 38 59 49 71 108 116 113 126 122 118 112 114 116 117 121
201 277 294 294 321 301 17 14 1 347 358 15 318 300 350 330 334 135 43 24 341 339 346 351 339 350 9 11 26 55 59 81 66 76 120 120 115 116 113 110 115 121 120 117
214 203 244 290 292 269 28 308 351 323 11 318 326 350 348 333 342 346 36 47 344 344 352 1 353 6 17 21 43 79 77 85 78 52 95 118 120 120 118 115 113 114 115 113
309 289 272 260 272 281 7 333 347 352 346 331 323 360 342 322 331 323 8 37 11 354 350 351 10 14 10 31 93 79 78 69 95 93 82 102 113 120 120 115 116 117 115 111
292 295 299 314 312 324 357 350 7 300 311 327 325 5 322 315 329 342 6 16 6 11 357 351 5 17 36 37 87 92 75 82 94 102 110 103 108 115 117 113 114 110 111 110
262 219 289 300 299 316 312 342 337 324 18 13 344 338 316 326 332 338 17 9 19 12 1 349 9 20 29 43 69 82 93 100 104 114 109 109 107 106 107 110 110 107 111 111
306 302 283 284 298 315 314 305 315 356 352 8 355 337 320 31 350 348 13 10 27 9 15 1 9 36 46 53 74 96 111 117 118 112 107 105 102 101 101 101 108 112 116 116
290 299 291 288 287 289 314 352 340 337 341 324 340 338 313 4 13 0 3 10 33 32 36 16 38 53 62 68 89 105 117 118 112 108 107 105 103 108 110 106 111 114 118 121
260 255 263 286 326 313 297 314 325 326 326 316 360 324 311 353 50 17 4 14 33 41 52 43 72 98 88 88 93 107 115 119 117 113 109 111 106 107 105 101 94 101 118 119
Height
731 745 746 727 731 736 737 738 734 718 699 704 707 704 693 678 670 671 671 673 673 673 670 671 675 678 681 686 691 695 700 699 703 707 706 712 717 718 723 727 730 734 742 748
738 742 726 727 732 735 734 733 725 710 704 712 710 703 680 666 667 671 671 674 674 676 676 675 676 678 678 679 682 687 691 695 697 703 704 708 712 715 717 720 726 730 738 745
742 732 722 732 735 735 730 729 724 728 715 706 697 690 676 665 668 675 681 682 679 680 680 678 676 675 675 676 677 679 684 688 692 695 700 703 709 711 714 714 718 726 733 739
739 719 728 732 737 730 743 721 723 723 721 724 695 713 688 687 687 689 690 690 690 690 684 678 675 672 669 669 671 673 676 680 686 691 694 696 700 704 708 710 713 721 729 735
744 733 732 742 734 734 737 718 720 713 711 709 698 708 693 685 701 700 697 698 698 692 687 679 672 666 660 659 660 665 670 674 679 684 687 691 696 700 702 706 711 716 724 731
730 717 721 732 733 725 713 718 712 709 702 725 705 716 698 703 712 704 700 700 695 688 684 675 665 661 655 652 649 653 658 666 671 676 680 683 689 693 698 702 707 711 720 727
733 714 721 728 736 721 722 732 757 744 730 729 702 713 720 711 706 707 708 704 698 686 677 667 664 664 657 649 646 641 647 653 663 667 672 676 680 687 692 697 704 708 715 722
764 756 744 729 735 738 731 740 779 790 761 747 714 720 718 711 705 708 707 706 706 698 685 670 666 661 648 639 633 640 636 644 653 659 663 668 672 679 687 690 695 703 710 719
771 763 739 730 724 728 732 746 733 780 755 757 714 703 708 704 705 706 705 705 703 700 690 674 661 651 643 626 624 630 623 634 643 649 655 659 665 672 681 684 689 698 708 717
766 773 743 730 727 724 736 735 757 767 784 768 730 725 724 717 715 712 709 708 703 697 688 670 654 643 635 626 621 618 614 625 635 644 647 653 657 666 674 680 680 691 701 712
760 763 757 739 730 736 744 751 739 748 756 777 768 736 714 719 718 715 710 707 703 693 685 672 653 633 622 616 618 620 615 621 629 635 637 643 651 655 663 674 673 684 698 710
762 770 768 750 721 717 719 736 736 762 767 769 770 751 708 709 711 713 711 708 703 693 682 671 651 625 606 608 609 612 616 619 626 632 627 641 625 655 660 670 675 683 699 710
771 768 775 755 748 725 742 736 736 733 747 758 770 746 712 707 710 714 715 712 706 696 680 666 650 636 629 627 615 612 620 618 625 634 631 631 631 649 659 669 679 690 699 712
773 774 780 793 771 752 748 742 727 731 764 759 752 734 718 713 713 714 715 716 708 699 688 675 652 636 638 634 627 629 622 626 627 633 638 643 642 652 656 673 683 690 700 715
769 778 768 756 751 741 734 725 730 733 736 754 738 734 725 718 716 715 719 716 710 700 692 681 667 655 657 639 629 634 642 624 634 639 647 655 652 652 667 677 689 698 707 716
762 771 762 760 739 725 721 735 731 725 727 725 730 732 726 717 710 713 719 715 713 706 697 688 677 665 660 653 655 643 632 632 640 645 651 656 655 658 669 683 691 700 713 720
768 768 772 763 735 723 751 752 727 727 726 737 747 738 726 719 713 717 718 717 715 711 701 694 686 677 667 659 662 656 643 644 647 653 661 658 654 673 683 687 698 705 718 726
762 766 764 757 746 748 725 714 716 722 728 739 736 733 724 721 713 719 719 718 715 711 706 698 690 682 675 671 670 665 657 656 659 657 659 658 672 682 686 691 700 718 725 732
746 758 766 763 753 738 733 726 726 728 733 736 735 726 719 717 711 717 717 719 718 713 709 705 696 687 682 678 673 667 664 668 667 672 665 661 665 681 692 696 712 724 733 744
739 748 761 759 767 775 743 737 717 714 733 729 723 721 722 716 717 715 715 720 717 714 709 705 701 695 688 685 685 680 674 676 676 677 681 681 683 687 703 711 721 733 742 748
753 747 747 744 746 730 737 727 716 739 746 726 722 721 724 725 719 715 713 719 719 717 711 708 705 701 695 689 689 687 682 684 683 675 697 685 696 700 709 718 729 739 748 756
756 757 752 741 746 754 727 727 745 741 726 720 717 722 723 717 713 712 713 720 721 717 714 710 704 704 701 694 692 689 681 686 686 685 708 702 711 715 719 717 739 745 752 761
752 746 751 750 742 729 724 730 725 723 725 725 722 720 718 715 714 712 712 721 721 721 718 713 707 705 700 698 696 694 696 699 696 708 712 713 721 724 728 730 743 750 761 769
738 731 739 738 731 730 726 723 723 721 722 722 723 720 716 713 713 711 713 721 725 724 721 717 711 710 712 708 706 706 707 710 716 716 718 722 722 730 737 744 755 759 767 774
753 748 743 738 730 722 720 724 722 721 722 721 719 720 718 710 713 713 714 720 726 728 724 720 717 716 716 718 716 716 715 716 717 719 724 727 733 739 748 756 761 767 774 779
741 740 741 733 723 727 725 721 720 720 721 720 721 719 716 710 715 716 717 722 727 730 727 723 721 721 720 722 722 723 723 722 723 726 731 736 741 750 756 760 766 774 779 784